Wind_Speed
43 39 24 31 38 42 38 47 29 45 35 35 32 33 29 28 18 24 30 32 34 36 36 35 35 36 37 35 32 29 27 25 24 24 23 24 25 27 28 31 32 35 37 39
38 41 42 32 26 32 44 47 56 47 38 22 29 28 32 29 28 21 24 31 35 35 34 33 34 34 35 34 32 29 27 26 25 24 23 25 26 27 30 32 34 36 39 41
16 33 29 42 46 36 30 33 50 40 55 42 24 24 22 19 23 21 23 30 32 34 31 31 31 32 33 32 31 29 27 25 24 24 25 25 27 28 31 33 35 37 41 43
5 14 19 31 40 43 43 34 28 38 43 40 42 34 21 27 23 19 21 27 31 31 30 31 31 32 33 32 30 28 26 25 24 24 25 26 27 30 32 34 36 40 42 44
7 20 8 22 18 20 36 45 45 41 35 36 28 31 34 29 30 20 19 25 28 29 29 29 31 33 32 31 29 27 25 24 24 25 25 26 29 30 33 35 39 41 43 44
12 6 7 22 19 6 19 40 28 32 38 38 32 32 34 35 31 26 21 23 27 28 28 29 31 31 30 28 26 25 24 24 23 23 25 27 29 31 35 37 39 41 42 43
29 16 6 11 12 20 19 14 10 28 29 35 38 34 33 27 29 24 20 24 26 26 27 29 29 29 28 26 25 24 23 22 22 23 25 27 30 33 35 38 40 42 41 39
28 22 8 12 18 28 22 29 24 10 24 23 33 30 29 32 29 27 27 28 27 28 29 29 28 26 25 24 22 21 20 21 22 23 26 29 32 34 37 39 39 39 38 37
23 21 8 7 14 22 24 25 22 24 20 26 28 33 32 31 29 28 28 30 30 28 28 29 28 25 22 20 19 18 19 20 22 25 27 30 33 35 36 37 36 36 35 36
33 34 25 18 15 23 25 27 21 17 21 22 25 31 32 27 30 30 30 29 28 28 28 26 24 21 19 18 17 17 18 20 23 26 29 31 33 34 34 34 35 35 34 33
29 19 27 29 21 20 18 18 17 12 10 13 19 28 26 28 31 30 31 30 29 28 25 23 20 17 15 14 14 16 19 22 24 27 29 30 30 31 32 33 33 32 31 30
28 26 20 28 32 17 15 13 11 10 17 20 17 21 27 30 29 29 30 30 29 26 22 18 14 13 13 14 15 18 21 22 24 26 27 27 28 30 31 30 30 29 28 27
28 35 26 24 29 24 15 14 14 15 17 21 25 25 27 29 30 29 29 28 24 21 18 17 16 15 12 13 17 18 20 22 24 24 25 27 27 26 25 28 27 26 25 25
16 25 32 26 25 20 15 20 22 24 26 27 28 29 29 30 33 31 28 26 24 22 19 13 8 9 12 14 16 18 20 21 22 24 25 24 24 23 23 22 23 24 24 24
18 20 22 25 23 23 23 27 31 32 31 31 30 31 31 32 32 31 28 24 18 10 5 6 9 10 12 15 17 19 20 21 22 23 23 22 21 21 21 21 21 20 20 21
27 26 29 32 33 33 33 34 35 38 38 38 37 37 36 33 27 21 15 11 8 7 6 6 8 11 14 16 18 19 20 20 21 21 21 20 19 19 20 20 19 19 19 20
29 36 39 41 43 45 46 46 46 46 44 40 33 27 23 19 16 13 10 8 6 4 6 9 12 14 16 17 18 19 19 20 19 19 18 17 18 18 18 18 18 19 21 23
29 34 35 38 39 37 35 31 29 29 27 26 24 21 17 14 10 7 5 3 5 8 11 13 14 16 17 17 17 17 18 18 17 15 16 16 17 17 17 18 20 21 23 25
34 35 34 34 32 31 32 31 29 27 24 20 17 14 11 8 6 3 3 5 9 11 13 15 16 17 17 16 16 16 16 15 14 14 15 15 15 16 17 19 21 23 24 24
38 37 36 35 32 28 28 26 22 19 16 13 11 9 7 3 1 3 6 9 12 14 16 17 16 16 15 14 14 14 13 12 13 13 13 13 14 16 18 20 21 22 23 23
31 28 27 25 24 22 20 18 16 14 13 10 6 2 2 4 6 8 11 13 15 16 17 16 15 13 12 13 13 12 11 11 11 11 11 13 15 17 18 18 19 20 21 22
22 20 20 19 18 16 15 14 11 8 4 1 4 7 9 11 13 15 16 17 17 17 15 14 12 11 11 11 10 10 9 9 8 10 11 13 14 14 16 17 18 19 20 22
17 17 16 14 13 10 8 5 2 4 6 9 12 14 16 18 19 19 19 18 17 15 14 12 10 10 10 9 8 8 6 6 8 9 11 11 12 13 14 15 17 18 19 19
12 11 10 8 6 4 3 5 7 10 14 17 19 20 21 20 19 18 17 16 14 13 12 10 10 10 8 7 6 5 4 6 7 8 8 9 11 12 13 15 16 17 18 19
6 5 3 3 4 6 8 11 14 17 19 20 19 18 17 16 15 14 14 14 13 13 12 10 9 8 7 6 4 3 4 4 5 6 7 9 9 11 13 13 14 16 17 19
3 5 7 9 10 13 15 18 19 20 18 15 15 15 14 12 13 14 14 14 13 12 11 10 9 7 6 5 3 2 2 3 4 5 6 7 8 10 11 12 14 16 17 19
8 10 12 13 15 18 20 21 21 17 16 16 15 13 13 14 14 14 13 12 12 12 11 10 9 8 6 4 2 1 2 2 3 3 4 6 8 9 10 12 14 16 18 19
Wind_Direction
226 234 250 232 229 225 224 231 225 243 240 245 256 266 261 273 243 222 223 218 212 212 209 210 208 208 207 208 210 215 219 223 228 234 242 250 258 266 274 280 287 294 299 302
229 229 235 243 238 234 233 235 235 236 237 255 244 252 258 251 246 236 217 213 211 212 213 212 210 207 204 206 210 214 219 224 229 237 245 254 262 270 277 286 293 298 301 304
231 226 237 239 232 238 249 242 230 229 240 227 224 230 243 264 254 243 219 214 212 211 211 210 206 203 203 206 210 214 219 225 233 242 249 258 267 276 284 291 296 301 303 304
275 207 229 242 234 235 244 253 249 244 251 247 241 246 260 259 260 250 234 219 212 211 204 201 198 198 201 205 210 215 222 229 237 245 255 264 275 283 289 295 300 302 303 303
258 214 225 232 222 219 226 247 251 252 254 243 234 237 238 243 243 235 236 217 211 203 199 193 193 197 200 203 209 217 225 232 241 251 262 273 282 289 295 299 301 302 303 304
239 224 220 241 226 226 239 244 246 242 239 241 233 222 229 229 233 231 213 212 203 196 192 193 193 196 200 206 213 221 228 237 247 260 272 281 288 293 297 300 301 302 304 304
227 249 262 210 220 245 228 246 270 242 239 237 237 239 236 234 225 214 210 204 197 197 195 194 195 197 201 208 215 224 233 245 259 271 279 286 292 296 299 301 302 302 303 306
216 220 264 192 224 228 243 246 259 286 240 239 233 234 225 227 225 207 198 198 201 198 195 193 193 198 204 211 219 230 244 257 268 277 286 292 296 300 301 301 301 302 306 308
201 213 185 236 226 231 234 243 246 255 247 227 232 226 219 222 222 213 202 197 197 197 196 194 195 196 204 214 227 240 254 266 277 288 293 296 299 299 299 300 302 305 307 307
214 230 220 221 231 230 235 236 246 247 241 239 223 222 216 216 208 202 198 198 196 192 193 195 193 199 209 222 237 252 267 280 289 292 295 298 299 299 300 303 304 305 306 306
200 211 216 218 242 242 243 231 246 224 186 206 206 210 207 203 196 192 188 185 185 184 185 186 193 203 217 234 252 269 281 286 290 294 296 298 299 301 304 303 304 305 307 307
201 211 219 218 229 241 238 224 213 190 168 177 189 208 195 187 183 182 179 176 174 174 179 185 194 208 226 249 270 277 282 290 294 296 298 300 302 304 304 304 305 307 308 310
200 209 215 218 220 230 225 209 178 167 178 177 173 189 179 177 169 167 166 167 169 174 179 191 204 230 252 267 273 285 293 296 298 299 301 302 303 304 304 305 306 307 309 311
191 199 206 206 205 199 185 178 164 162 162 165 166 163 164 164 157 160 161 164 173 182 194 211 228 255 265 278 289 296 298 298 300 300 302 304 304 305 306 305 306 310 311 311
175 177 200 175 168 154 161 157 156 154 152 150 148 152 155 156 158 164 168 173 183 176 180 229 252 272 287 295 298 297 299 301 301 301 303 304 303 306 308 309 308 309 311 314
155 162 162 155 152 151 149 149 151 144 146 143 147 151 157 161 165 164 142 133 156 190 217 253 287 298 298 298 300 302 301 301 301 301 301 302 305 309 310 310 310 312 315 316
153 147 144 139 136 136 136 138 140 144 151 156 156 153 142 122 119 131 148 173 191 233 285 296 298 300 303 304 302 300 300 302 302 301 302 304 308 309 310 311 314 316 318 319
129 127 132 135 137 137 135 131 129 127 122 117 114 119 124 129 141 157 170 205 259 283 291 297 302 305 304 301 300 301 302 303 303 303 305 306 308 311 313 315 317 320 321 321
110 113 117 119 119 120 116 113 113 114 113 114 117 123 136 149 157 176 243 280 290 295 300 303 304 303 301 300 301 303 303 303 303 304 306 308 311 314 318 321 321 322 322 323
104 104 103 102 101 101 101 103 108 113 121 130 133 132 131 136 246 288 294 299 305 306 303 302 301 298 295 296 299 301 302 303 305 305 307 312 317 320 321 322 323 324 326 327
91 94 97 100 105 109 114 119 125 128 126 121 116 102 303 301 304 302 303 303 303 301 298 296 292 290 293 297 298 299 302 303 303 308 314 318 320 321 323 326 327 329 331 332
104 108 111 113 113 113 113 113 113 113 106 17 318 309 303 301 301 300 298 297 295 292 291 290 287 286 292 296 297 297 299 301 307 313 316 318 322 326 330 331 334 336 336 335
100 105 107 107 106 105 103 92 51 344 324 316 310 305 300 297 295 293 291 289 287 284 283 280 280 287 289 286 284 285 288 301 310 316 321 327 333 335 337 340 341 341 341 342
97 96 95 94 87 64 16 338 323 315 310 305 301 297 294 291 288 285 282 280 279 276 273 268 268 270 266 265 265 268 290 307 316 326 335 340 342 344 346 347 345 348 351 352
85 75 57 22 353 337 327 320 316 312 308 302 298 295 292 288 281 279 276 274 266 258 250 246 249 249 248 242 237 265 291 311 327 337 344 349 351 352 350 353 358 359 359 1
10 348 337 332 328 322 319 318 318 315 311 307 302 298 291 280 274 272 269 263 252 242 237 235 230 225 214 214 235 267 307 323 334 345 355 2 360 357 2 7 8 9 9 9
329 325 323 321 319 318 320 321 318 310 308 307 303 298 292 287 282 277 266 249 235 230 228 220 210 203 203 215 229 259 292 317 345 7 20 11 7 13 17 18 19 19 19 17
Height
2952 2958 2961 2961 2964 2968 2972 2968 2977 2967 2975 2976 2979 2979 2985 2989 2990 2991 2994 2999 3007 3014 3019 3023 3030 3038 3046 3054 3060 3065 3069 3073 3076 3078 3080 3081 3082 3083 3083 3083 3081 3078 3075 3072
2942 2950 2956 2954 2954 2957 2957 2960 2964 2969 2972 2975 2977 2978 2979 2982 2984 2987 2990 2996 3003 3010 3015 3020 3028 3035 3042 3049 3055 3060 3065 3068 3071 3073 3074 3075 3076 3077 3077 3075 3072 3070 3066 3063
2935 2942 2949 2941 2944 2949 2949 2953 2957 2961 2954 2972 2973 2975 2976 2976 2977 2980 2985 2992 2998 3007 3011 3018 3025 3032 3038 3044 3050 3055 3059 3063 3065 3067 3068 3069 3070 3070 3069 3067 3064 3061 3058 3053
2935 2937 2936 2928 2937 2943 2945 2947 2951 2954 2956 2962 2969 2975 2976 2976 2977 2980 2984 2990 2997 3003 3009 3016 3022 3029 3034 3040 3046 3050 3054 3057 3059 3061 3062 3063 3063 3062 3061 3059 3055 3052 3048 3043
2931 2927 2925 2925 2929 2934 2938 2937 2942 2947 2952 2956 2963 2966 2969 2971 2975 2979 2985 2991 2996 3003 3009 3014 3020 3025 3031 3036 3041 3045 3049 3051 3053 3055 3056 3057 3056 3055 3053 3050 3046 3042 3038 3033
2927 2924 2920 2918 2926 2929 2931 2925 2934 2937 2942 2947 2952 2957 2960 2965 2971 2977 2983 2990 2996 3001 3006 3012 3017 3023 3028 3032 3037 3040 3043 3046 3048 3049 3050 3050 3049 3047 3044 3040 3037 3032 3028 3023
2921 2922 2915 2916 2920 2925 2924 2928 2927 2929 2932 2937 2944 2951 2959 2964 2968 2973 2981 2987 2993 2999 3004 3010 3014 3020 3024 3029 3032 3036 3039 3041 3042 3043 3043 3043 3041 3039 3034 3031 3027 3023 3019 3013
2916 2917 2916 2912 2915 2917 2921 2924 2923 2925 2928 2934 2938 2946 2951 2958 2963 2970 2977 2982 2991 2996 3001 3007 3012 3017 3021 3025 3028 3031 3034 3035 3036 3036 3036 3035 3033 3028 3025 3022 3019 3014 3009 3004
2905 2908 2907 2908 2912 2913 2917 2919 2921 2922 2925 2927 2932 2940 2949 2956 2962 2969 2975 2981 2987 2993 2999 3004 3010 3014 3018 3021 3024 3027 3029 3030 3030 3029 3028 3026 3023 3021 3018 3014 3009 3004 3000 2996
2898 2901 2907 2907 2908 2910 2913 2916 2918 2919 2920 2924 2930 2939 2948 2955 2960 2966 2973 2979 2986 2991 2997 3002 3006 3011 3015 3018 3021 3023 3024 3023 3023 3023 3021 3019 3017 3013 3009 3004 2999 2996 2992 2988
2889 2896 2902 2905 2906 2909 2911 2914 2915 2916 2918 2923 2931 2941 2948 2954 2960 2966 2972 2978 2984 2990 2995 3000 3005 3008 3011 3014 3016 3017 3018 3018 3018 3016 3014 3012 3008 3004 2999 2995 2991 2987 2984 2980
2886 2893 2899 2903 2906 2908 2910 2913 2915 2917 2919 2926 2936 2943 2949 2954 2961 2967 2972 2978 2983 2988 2994 2998 3003 3006 3009 3011 3012 3014 3014 3012 3011 3009 3006 3003 2999 2995 2991 2987 2983 2980 2976 2972
2884 2891 2897 2901 2904 2907 2910 2913 2916 2921 2927 2932 2938 2946 2951 2956 2962 2968 2974 2979 2984 2989 2993 2997 3001 3004 3006 3008 3009 3008 3007 3005 3003 3001 2998 2995 2992 2989 2985 2979 2977 2974 2970 2966
2885 2890 2894 2899 2902 2906 2911 2915 2919 2924 2930 2936 2942 2948 2953 2958 2964 2970 2975 2980 2984 2988 2993 2997 2999 3002 3004 3003 3003 3001 2999 2998 2996 2993 2991 2988 2985 2982 2979 2976 2971 2967 2963 2960
2884 2889 2896 2899 2904 2907 2914 2918 2923 2928 2934 2940 2947 2953 2959 2962 2967 2971 2976 2980 2985 2988 2992 2995 2997 2998 2998 2997 2996 2995 2993 2991 2989 2986 2984 2981 2979 2976 2973 2970 2967 2963 2960 2955
2885 2892 2896 2901 2905 2910 2918 2923 2928 2932 2939 2944 2949 2954 2959 2964 2969 2973 2977 2982 2986 2989 2992 2993 2993 2992 2992 2991 2990 2988 2986 2985 2982 2980 2978 2975 2973 2970 2968 2965 2962 2958 2955 2951
2891 2894 2899 2902 2907 2916 2922 2927 2931 2935 2939 2945 2952 2958 2963 2967 2972 2977 2981 2984 2986 2987 2988 2988 2989 2988 2986 2984 2983 2982 2980 2978 2976 2974 2972 2970 2968 2966 2963 2960 2957 2954 2950 2947
2905 2908 2911 2912 2918 2924 2929 2935 2940 2944 2948 2953 2958 2964 2968 2973 2976 2978 2980 2982 2983 2985 2985 2984 2983 2981 2980 2979 2978 2976 2975 2973 2971 2969 2968 2966 2963 2961 2958 2956 2953 2949 2946 2942
2918 2920 2923 2926 2931 2934 2938 2943 2947 2952 2956 2961 2965 2968 2971 2974 2977 2978 2979 2980 2980 2980 2979 2977 2976 2976 2975 2974 2972 2971 2970 2968 2967 2965 2964 2961 2959 2957 2954 2952 2948 2945 2941 2937
2927 2930 2933 2936 2941 2946 2948 2951 2956 2960 2963 2966 2969 2971 2973 2974 2975 2976 2977 2977 2976 2975 2973 2972 2972 2971 2970 2969 2968 2967 2966 2964 2963 2961 2960 2958 2956 2953 2951 2948 2945 2941 2937 2933
2938 2941 2944 2947 2950 2953 2956 2959 2961 2964 2967 2969 2971 2972 2973 2973 2973 2973 2972 2972 2971 2970 2969 2968 2967 2966 2965 2964 2964 2963 2962 2961 2960 2958 2956 2955 2953 2951 2948 2945 2941 2937 2933 2929
2947 2950 2951 2954 2956 2958 2961 2963 2965 2967 2968 2969 2969 2969 2969 2969 2969 2968 2967 2967 2966 2964 2963 2962 2962 2962 2961 2960 2960 2960 2959 2958 2957 2956 2954 2953 2951 2948 2945 2942 2938 2934 2930 2926
2953 2955 2956 2958 2960 2961 2963 2964 2965 2966 2966 2966 2966 2965 2965 2964 2963 2962 2961 2960 2959 2959 2958 2958 2958 2957 2958 2958 2957 2957 2957 2956 2955 2954 2952 2950 2948 2945 2942 2939 2936 2933 2929 2925
2957 2958 2960 2961 2962 2963 2963 2964 2964 2964 2964 2963 2961 2960 2959 2958 2957 2956 2955 2954 2954 2953 2953 2954 2955 2955 2956 2955 2955 2955 2954 2954 2953 2951 2950 2948 2946 2944 2941 2938 2935 2932 2928 2924
2961 2961 2962 2963 2963 2963 2963 2962 2962 2960 2959 2957 2955 2954 2952 2951 2951 2950 2950 2949 2949 2950 2951 2952 2952 2952 2953 2953 2953 2952 2952 2951 2950 2949 2948 2947 2945 2943 2941 2938 2935 2931 2927 2923
2961 2962 2962 2961 2961 2960 2959 2958 2956 2953 2951 2950 2949 2947 2946 2946 2946 2945 2945 2945 2946 2946 2947 2948 2949 2950 2950 2950 2950 2950 2950 2949 2949 2948 2947 2946 2945 2943 2940 2938 2934 2931 2927 2923
2960 2960 2959 2958 2957 2955 2954 2951 2949 2947 2946 2944 2943 2942 2941 2940 2939 2939 2939 2939 2941 2942 2943 2944 2946 2947 2947 2948 2948 2948 2948 2948 2947 2947 2946 2946 2944 2943 2940 2938 2935 2931 2927 2924